sat.trackr.live / text

‹ back to catalog

COSMOS 2570

NORAD 58148 · 2023-165A

PAYLOAD ACTIVE UNKNOWN

§ Identity

Operator
Country
CIS
Launch date
2023-10-27
Launch site
PLMSC
Launch vehicle
Mass (kg)
RCS (m²)

External: N2YO · Heavens-Above · Gunter

§ Orbital elements

Epoch: 2026-05-25T03:06:14.668416Z

Period
103.10 min
Inclination
67.1501°
Eccentricity
0.0006523
Mean motion
13.96676482 rev/d
Perigee alt
900.6 km
Apogee alt
910.1 km
Semi-major
7,283.5 km
B*
5.7024e-5
RAAN
345.4702°
Arg perigee
278.5752°
Mean anomaly
81.4593°
Rev number
13,141

§ Raw data

COSMOS 25701 58148U 23165A   26145.12933644  .00000004  00000+0  57024-4 0  99982 58148  67.1501 345.4702 0006523 278.5752  81.4593 13.96676482131417

JSON: /api/v1/satellites/58148 · /tle

For live sub-satellite position, see the globe view (requires WebGL).

§ Visibility from observer

Set your observer location to see the next 7 days of passes ≥ 10°. The values pass through the URL so the page stays shareable.

No JS? Fill the form by hand. The geolocation button needs JavaScript.